Location: Pace/Milton
(30.6162°N, 87.1503°W)
Time: 10:01:50
(UTC-06:00)

Envisat - Pass Details

Date: 11 December 2021
Orbit: 764 x 766 km, 98.2° (Epoch: 23 January)

Event Time Altitude Azimuth Distance (km) Brightness Sun altitude
Rises 05:15:31 0° 2° (N) 3,233 6.1 -16.9°
Reaches altitude 10° 05:17:57 10° 354° (N) 2,304 5.2 -16.4°
Maximum altitude 05:22:38 39° 287° (WNW) 1,139 3.4 -15.4°
Drops below altitude 10° 05:27:18 10° 220° (SW) 2,292 5.3 -14.5°
Sets 05:29:43 0° 212° (SSW) 3,214 6.1 -14.0°
